Waarnemingen

Advertentie
Mijn weer
Vitoria, Spanje (8080): temperatuur & dauwpunt: 15.09.2018 10:00:00 - 21.09.2018 10:00:00 (CEST)Vitoria, Spanje (8080): windsnelheid: 15.09.2018 10:00:00 - 21.09.2018 10:00:00 (CEST)Vitoria, Spanje (8080): windrichting: 15.09.2018 10:00:00 - 21.09.2018 10:00:00 (CEST)Vitoria, Spanje (8080): luchtdruk: 15.09.2018 10:00:00 - 21.09.2018 10:00:00 (CEST)Vitoria, Spanje (8080): zicht: 15.09.2018 10:00:00 - 21.09.2018 10:00:00 (CEST)Vitoria, Spanje (8080): neerslag: 15.09.2018 10:00:00 - 21.09.2018 10:00:00 (CEST)
Datum & Tijd tt [°C] td [°C] ff [km/u] ff [kn] dd ppp [hPa] vv [km] rr [mm]
21.09.2018 10:00:00 - - - - - - - -
21.09.2018 09:00:00 15,1 14,8 4 2 N 1020,6 0,5 -
21.09.2018 08:00:00 15,3 15,1 0 0 N 1019,6 0,5 -
21.09.2018 07:00:00 15,3 15,0 0 0 N 1018,9 - -
21.09.2018 06:00:00 15,5 14,7 0 0 N 1018,5 - -
21.09.2018 05:00:00 14,7 13,9 0 0 N 1018,8 6 -
21.09.2018 04:00:00 14,0 13,2 9 5 N 1018,9 - -
21.09.2018 03:00:00 14,5 13,5 8 4 NNO 1018,9 - -
21.09.2018 02:00:00 15,9 15,1 9 5 N 1018,4 9 -
21.09.2018 01:00:00 16,5 15,5 0 0 N 1018,7 - -
21.09.2018 00:00:00 17,2 15,7 0 0 N 1018,8 - -
20.09.2018 23:00:00 18,6 16,5 9 5 OZO 1018,3 8 -
20.09.2018 22:00:00 19,9 16,9 8 4 OZO 1017,5 - -
20.09.2018 21:00:00 21,6 17,4 15 8 NNO 1016,0 - -
20.09.2018 20:00:00 24,4 18,2 22 12 NNO 1014,9 20 -
20.09.2018 19:00:00 31,1 14,3 11 6 ZZW 1013,2 - -
20.09.2018 18:00:00 32,0 14,2 15 8 ZZW 1013,0 - -
20.09.2018 17:00:00 32,2 14,3 13 7 ZW 1013,5 25 -
20.09.2018 16:00:00 31,3 15,0 13 7 Z 1014,3 - -
20.09.2018 15:00:00 30,3 15,5 13 7 ZW 1015,3 25 -
20.09.2018 14:00:00 28,5 16,5 9 5 ZW 1016,6 20 -
20.09.2018 13:00:00 26,2 18,0 8 4 WZW 1017,9 - -
20.09.2018 12:00:00 23,8 17,7 8 4 ZW 1019,0 - -
20.09.2018 11:00:00 21,7 16,9 11 6 ZW 1019,6 15 -
20.09.2018 10:00:00 19,9 16,5 5 3 ZZW 1020,1 - -
20.09.2018 09:00:00 18,6 16,6 8 4 ZZW 1020,4 8 -
20.09.2018 08:00:00 18,3 16,5 8 4 ZW 1020,4 8 -
20.09.2018 07:00:00 18,6 16,6 0 0 N 1020,4 - -
20.09.2018 06:00:00 18,6 16,4 0 0 N 1020,6 - -
20.09.2018 05:00:00 18,6 16,6 8 4 NO 1021,1 9 -
20.09.2018 04:00:00 18,8 16,6 8 4 NO 1021,3 - -
20.09.2018 03:00:00 19,0 16,9 8 4 N 1021,6 - -
20.09.2018 02:00:00 19,0 17,0 9 5 N 1021,9 9 -
20.09.2018 01:00:00 19,0 17,0 11 6 N 1022,0 - -
20.09.2018 00:00:00 18,2 16,5 5 3 NNW 1022,3 - -
19.09.2018 23:00:00 18,7 16,7 5 3 NNW 1022,2 9 -
19.09.2018 22:00:00 19,2 16,9 5 3 NNW 1021,7 - -
19.09.2018 21:00:00 19,8 17,0 8 4 NW 1021,1 - -
19.09.2018 20:00:00 21,3 17,5 11 6 NNW 1020,3 10 -
19.09.2018 19:00:00 23,5 18,2 22 12 NNO 1019,3 - -
19.09.2018 18:00:00 26,0 18,9 22 12 N 1018,1 - -
19.09.2018 17:00:00 26,8 19,0 28 15 NNO 1017,5 25 -
19.09.2018 16:00:00 30,0 15,1 11 6 N 1017,3 - -
19.09.2018 15:00:00 29,4 15,5 9 5 ZZW 1017,8 25 -
19.09.2018 14:00:00 27,3 17,2 5 3 ZZO 1018,8 20 -
19.09.2018 13:00:00 25,2 17,8 4 2 NO 1019,9 - -
19.09.2018 12:00:00 23,3 17,2 8 4 Z 1020,7 - -
19.09.2018 11:00:00 21,3 16,9 4 2 WZW 1021,2 10 -
19.09.2018 10:00:00 19,5 17,1 0 0 N 1021,0 - -
19.09.2018 09:00:00 17,2 16,4 5 3 O 1020,9 8 -
19.09.2018 08:00:00 16,9 15,6 5 3 O 1020,1 8 -
19.09.2018 07:00:00 18,4 16,9 8 4 NNO 1019,4 - -
19.09.2018 06:00:00 18,5 16,8 0 0 N 1018,9 - -
19.09.2018 05:00:00 18,8 17,1 9 5 NO 1019,3 10 -
19.09.2018 04:00:00 19,0 17,3 0 0 N 1019,6 - -
19.09.2018 03:00:00 18,5 16,9 4 2 NO 1019,8 - -
19.09.2018 02:00:00 18,8 17,1 8 4 ONO 1019,6 10 -
19.09.2018 01:00:00 19,3 17,4 0 0 N 1019,7 - -
19.09.2018 00:00:00 19,4 17,4 11 6 N 1019,6 - -
18.09.2018 23:00:00 19,3 17,4 13 7 NO 1019,4 10 -
18.09.2018 22:00:00 19,7 17,5 13 7 NNO 1018,7 - -
18.09.2018 21:00:00 19,8 17,8 16 9 N 1018,1 - -
18.09.2018 20:00:00 21,0 18,2 15 8 N 1017,0 10 -
18.09.2018 19:00:00 24,2 18,4 18 10 N 1015,3 - -
18.09.2018 18:00:00 27,0 18,8 21 11 NNO 1013,6 - -
18.09.2018 17:00:00 29,4 16,2 8 4 Z 1013,0 25 -
18.09.2018 16:00:00 28,8 16,2 5 3 W 1013,4 - -
18.09.2018 15:00:00 27,5 17,3 9 5 W 1014,0 25 -
18.09.2018 14:00:00 26,2 18,5 5 3 W 1014,9 20 -
18.09.2018 13:00:00 24,3 18,5 8 4 ZW 1015,7 - -
18.09.2018 12:00:00 21,4 17,8 0 0 N 1016,8 - -
18.09.2018 11:00:00 18,1 16,6 0 0 N 1017,4 20 -
18.09.2018 10:00:00 17,0 16,0 4 2 ONO 1017,2 - -
18.09.2018 09:00:00 15,4 14,9 4 2 NO 1017,1 18 -
18.09.2018 08:00:00 14,1 13,8 0 0 N 1016,8 18 -
18.09.2018 07:00:00 13,6 13,3 2 1 NNW 1016,7 - -
18.09.2018 06:00:00 13,9 13,6 0 0 N 1016,4 - -
18.09.2018 05:00:00 13,9 12,9 0 0 N 1016,5 15 0,0
18.09.2018 04:00:00 14,7 13,6 5 3 Z 1016,6 - -
18.09.2018 03:00:00 15,2 14,2 9 5 NNO 1016,5 - -
18.09.2018 02:00:00 16,7 15,3 4 2 N 1015,8 15 -
18.09.2018 01:00:00 17,5 16,1 0 0 N 1015,7 - -
18.09.2018 00:00:00 18,3 16,1 9 5 N 1015,9 - -
17.09.2018 23:00:00 18,6 16,4 8 4 ZO 1015,4 15 -
17.09.2018 22:00:00 19,8 16,1 11 6 WZW 1016,1 - -
17.09.2018 21:00:00 22,8 12,5 13 7 W 1014,8 - -
17.09.2018 20:00:00 24,1 13,4 11 6 ZO 1013,6 15 -
17.09.2018 19:00:00 27,0 12,2 24 13 ZZW 1012,2 - -
17.09.2018 18:00:00 28,8 15,8 11 6 Z 1011,8 - -
17.09.2018 17:00:00 30,6 16,3 11 6 ZO 1012,1 - -
17.09.2018 16:00:00 30,6 16,3 13 7 ZZO 1012,7 - -
17.09.2018 15:00:00 29,9 16,7 9 5 Z 1013,6 - -
17.09.2018 14:00:00 28,5 16,8 11 6 Z 1014,7 25 -
17.09.2018 13:00:00 27,0 16,1 21 11 Z 1015,7 - -
17.09.2018 12:00:00 25,3 17,5 9 5 WZW 1016,5 - -
17.09.2018 11:00:00 22,6 16,6 4 2 N 1017,3 15 -
17.09.2018 10:00:00 19,9 16,3 0 0 N 1018,1 - -
17.09.2018 09:00:00 15,1 14,2 0 0 N 1019,3 10 -
17.09.2018 08:00:00 12,8 12,3 2 1 OZO 1019,6 9 -
17.09.2018 07:00:00 13,5 12,7 0 0 N 1019,3 - -
17.09.2018 06:00:00 15,0 13,9 5 3 ZW 1019,0 - -
17.09.2018 05:00:00 17,3 15,9 4 2 W 1018,8 8 -
17.09.2018 04:00:00 17,9 16,4 0 0 N 1019,1 - -
17.09.2018 03:00:00 18,0 16,3 0 0 N 1019,6 - -
17.09.2018 02:00:00 18,0 16,3 5 3 NO 1020,1 9 -
17.09.2018 01:00:00 18,0 16,3 11 6 NNO 1020,4 - -
17.09.2018 00:00:00 18,3 16,5 13 7 NNO 1020,8 - -
16.09.2018 23:00:00 18,4 16,6 16 9 NNO 1021,0 9 -
16.09.2018 22:00:00 18,5 16,6 15 8 NNO 1020,8 - -
16.09.2018 21:00:00 18,7 16,4 13 7 NNO 1020,6 - -
16.09.2018 20:00:00 19,7 16,5 15 8 N 1020,2 9 -
16.09.2018 19:00:00 21,6 17,0 21 11 N 1019,0 - -
16.09.2018 18:00:00 24,4 17,9 22 12 NNO 1017,6 - -
16.09.2018 17:00:00 27,7 18,0 21 11 NNO 1016,7 30 -
16.09.2018 16:00:00 28,2 17,9 22 12 NNO 1017,2 - -
16.09.2018 15:00:00 29,1 15,4 4 2 W 1017,3 25 -
16.09.2018 14:00:00 27,3 15,5 4 2 OZO 1018,1 25 -
16.09.2018 13:00:00 25,6 15,9 4 2 O 1019,0 - -
16.09.2018 12:00:00 23,6 15,6 4 2 NO 1019,8 - -
16.09.2018 11:00:00 21,8 14,7 8 4 ZW 1020,1 25 -
16.09.2018 10:00:00 18,9 15,2 4 2 OZO 1020,8 - -
16.09.2018 09:00:00 13,7 12,6 5 3 NO 1021,9 20 -
16.09.2018 08:00:00 10,1 9,6 0 0 N 1022,1 20 -
16.09.2018 07:00:00 9,9 9,2 5 3 ONO 1021,7 - -
16.09.2018 06:00:00 10,7 10,2 0 0 N 1021,1 - -
16.09.2018 05:00:00 11,4 11,1 0 0 N 1020,8 10 -
16.09.2018 04:00:00 11,4 10,6 0 0 N 1021,0 - -
16.09.2018 03:00:00 12,4 11,5 0 0 N 1021,3 - -
16.09.2018 02:00:00 13,5 12,4 0 0 N 1021,3 10 -
16.09.2018 01:00:00 14,5 12,9 5 3 O 1021,2 - -
16.09.2018 00:00:00 15,2 13,7 0 0 N 1021,3 - -
15.09.2018 23:00:00 17,1 14,6 0 0 N 1020,8 10 -
15.09.2018 22:00:00 18,5 14,8 0 0 N 1020,1 - -
15.09.2018 21:00:00 21,7 16,2 9 5 N 1018,9 - -
15.09.2018 20:00:00 24,4 16,4 21 11 NNO 1017,6 30 -
15.09.2018 19:00:00 28,0 14,9 15 8 NO 1016,4 - -
15.09.2018 18:00:00 29,1 14,2 4 2 ZO 1016,0 - -
15.09.2018 17:00:00 29,0 14,5 4 2 WNW 1016,3 30 -
15.09.2018 16:00:00 27,4 13,9 2 1 Z 1017,3 - -
15.09.2018 15:00:00 26,0 11,7 4 2 ZO 1018,5 25 -
15.09.2018 14:00:00 23,9 13,1 8 4 ZO 1019,6 25 -
15.09.2018 13:00:00 22,3 13,3 5 3 ZZO 1020,5 - -
15.09.2018 12:00:00 20,6 12,6 4 2 ONO 1021,6 - -
15.09.2018 11:00:00 18,3 13,2 4 2 O 1022,3 20 -
15.09.2018 10:00:00 16,2 13,5 4 2 O 1022,8 - -

tt = temperatuur
td = dauwpunt
ff = windsnelheid
dd = windrichting
ppp = luchtdruk
vv = zicht
rr = neerslag

Weerstations in de omgeving